Back to Top

Language: 

My Weather Underground Personal Weather Station Historical Data with Graphs...

Delerius Weather Station Historical Data
Daily Summary for December 4, 2016 Units:  Metric    English   Both
« Previous Day
Next Day »
Daily Weekly Monthly Yearly Custom
  High: Low: Average:
Temperature: 7.8 °C -2.3 °C 4.6 °C
Dew Point: 4 °C -2.9 °C 2 °C
Humidity: 95 % 73 % 84 %
Wind Speed: 12.9 km/h 0 km/h 3.4 km/h
Wind Gust: 16.1 km/h - -
Wind:- - ESE
Pressure: 1027 hPa 1025.6 hPa -
Precipitation: 0 mm    
Historical Graphs
 
 
Tabular Data for December 4, 2016
Time Temperature Dew Point Pressure Wind Wind Speed Wind Gust Humidity Rainfall Rate (Hourly) solar Conditions
00:00 4.6 °C 2.6 °C 1027 hPa East 1.6 km/h 6.4 km/h 87 % 0 mm 0 W/m2
00:05 4.6 °C 2.6 °C 1027 hPa ENE 1.6 km/h 6.4 km/h 87 % 0 mm 0 W/m2
00:15 4.6 °C 2.6 °C 1027 hPa East 1.6 km/h 1.6 km/h 87 % 0 mm 0 W/m2
00:20 4.6 °C 2.6 °C 1027 hPa East 1.6 km/h 1.6 km/h 87 % 0 mm 0 W/m2
00:25 4.6 °C 2.6 °C 1027 hPa East 1.6 km/h 3.2 km/h 87 % 0 mm 0 W/m2
00:30 4.6 °C 2.6 °C 1027 hPa East 1.6 km/h 1.6 km/h 87 % 0 mm 0 W/m2
00:35 4.6 °C 2.6 °C 1027 hPa East 1.6 km/h 1.6 km/h 87 % 0 mm 0 W/m2
00:40 4.6 °C 2.4 °C 1027 hPa East 1.6 km/h 1.6 km/h 86 % 0 mm 0 W/m2
00:45 4.5 °C 2.3 °C 1027 hPa East 1.6 km/h 1.6 km/h 86 % 0 mm 0 W/m2
00:55 4.6 °C 2.4 °C 1027 hPa ESE 3.2 km/h 3.2 km/h 86 % 0 mm 0 W/m2
01:00 4.6 °C 2.3 °C 1027 hPa ESE 3.2 km/h 3.2 km/h 85 % 0 mm 0 W/m2
01:05 4.6 °C 2.3 °C 1027 hPa ESE 1.6 km/h 9.7 km/h 85 % 0 mm 0 W/m2
01:10 4.7 °C 2.3 °C 1027 hPa ESE 1.6 km/h 1.6 km/h 85 % 0 mm 0 W/m2
01:15 4.7 °C 2.2 °C 1027 hPa East 1.6 km/h 9.7 km/h 84 % 0 mm 0 W/m2
01:25 4.7 °C 2.2 °C 1027 hPa East 1.6 km/h 9.7 km/h 84 % 0 mm 0 W/m2
01:30 4.7 °C 2.2 °C 1027 hPa East 1.6 km/h 9.7 km/h 84 % 0 mm 0 W/m2
01:35 4.7 °C 2.2 °C 1027 hPa East 1.6 km/h 9.7 km/h 84 % 0 mm 0 W/m2
01:40 4.7 °C 2.2 °C 1027 hPa East 1.6 km/h 9.7 km/h 84 % 0 mm 0 W/m2
01:45 4.7 °C 2.1 °C 1027 hPa ESE 3.2 km/h 9.7 km/h 83 % 0 mm 0 W/m2
01:50 4.7 °C 2.1 °C 1027 hPa ESE 3.2 km/h 3.2 km/h 83 % 0 mm 0 W/m2
02:00 4.8 °C 2.1 °C 1027 hPa ESE 1.6 km/h 9.7 km/h 83 % 0 mm 0 W/m2
02:05 4.8 °C 2.1 °C 1027 hPa ESE 1.6 km/h 9.7 km/h 83 % 0 mm 0 W/m2
02:10 4.8 °C 2.1 °C 1027 hPa ESE 3.2 km/h 9.7 km/h 83 % 0 mm 0 W/m2
02:15 4.8 °C 2.1 °C 1027 hPa ESE 4.8 km/h 9.7 km/h 83 % 0 mm 0 W/m2
02:25 4.9 °C 2.1 °C 1027 hPa ESE 4.8 km/h 9.7 km/h 82 % 0 mm 0 W/m2
02:30 4.9 °C 2.1 °C 1027 hPa East 4.8 km/h 9.7 km/h 82 % 0 mm 0 W/m2
02:40 4.9 °C 2.1 °C 1027 hPa ESE 3.2 km/h 9.7 km/h 82 % 0 mm 0 W/m2
02:45 4.9 °C 2.1 °C 1027 hPa ESE 3.2 km/h 9.7 km/h 82 % 0 mm 0 W/m2
02:50 4.9 °C 2.1 °C 1027 hPa ESE 3.2 km/h 3.2 km/h 82 % 0 mm 0 W/m2
02:55 4.9 °C 2.1 °C 1027 hPa ESE 1.6 km/h 9.7 km/h 82 % 0 mm 0 W/m2
03:05 4.9 °C 2.1 °C 1027 hPa ESE 3.2 km/h 9.7 km/h 82 % 0 mm 0 W/m2
03:10 4.9 °C 2.1 °C 1027 hPa ESE 1.6 km/h 1.6 km/h 82 % 0 mm 0 W/m2
03:15 4.8 °C 2 °C 1027 hPa ESE 1.6 km/h 9.7 km/h 82 % 0 mm 0 W/m2
03:20 4.8 °C 2 °C 1027 hPa East 3.2 km/h 3.2 km/h 82 % 0 mm 0 W/m2
03:25 4.8 °C 2 °C 1027 hPa ESE 3.2 km/h 9.7 km/h 82 % 0 mm 0 W/m2
03:30 4.8 °C 2.2 °C 1027 hPa ESE 1.6 km/h 1.6 km/h 83 % 0 mm 0 W/m2
03:40 4.8 °C 2 °C 1027 hPa ESE 1.6 km/h 9.7 km/h 82 % 0 mm 0 W/m2
03:45 4.8 °C 2 °C 1026.6 hPa ESE 3.2 km/h 9.7 km/h 82 % 0 mm 0 W/m2
03:50 4.9 °C 2.1 °C 1026.6 hPa SE 3.2 km/h 9.7 km/h 82 % 0 mm 0 W/m2
03:55 4.9 °C 2.1 °C 1026.6 hPa SE 4.8 km/h 9.7 km/h 82 % 0 mm 0 W/m2
04:00 4.9 °C 1.9 °C 1026.6 hPa ESE 4.8 km/h 9.7 km/h 81 % 0 mm 0 W/m2
04:10 5 °C 2 °C 1026.6 hPa ESE 6.4 km/h 9.7 km/h 81 % 0 mm 0 W/m2
04:15 5.1 °C 2.1 °C 1026.6 hPa ESE 6.4 km/h 9.7 km/h 81 % 0 mm 0 W/m2
04:20 5.1 °C 1.9 °C 1026.6 hPa ESE 4.8 km/h 4.8 km/h 80 % 0 mm 0 W/m2
04:25 5.1 °C 1.9 °C 1026.6 hPa ESE 3.2 km/h 9.7 km/h 80 % 0 mm 0 W/m2
04:30 5.1 °C 1.9 °C 1027 hPa ESE 4.8 km/h 4.8 km/h 80 % 0 mm 0 W/m2
04:35 5.1 °C 2.1 °C 1027 hPa East 4.8 km/h 8 km/h 81 % 0 mm 0 W/m2
04:45 5.1 °C 2.1 °C 1027 hPa ESE 1.6 km/h 9.7 km/h 81 % 0 mm 0 W/m2
04:50 5.1 °C 2.1 °C 1027 hPa East 1.6 km/h 1.6 km/h 81 % 0 mm 0 W/m2
04:55 5 °C 2.2 °C 1027 hPa ENE 1.6 km/h 9.7 km/h 82 % 0 mm 0 W/m2
05:00 4.9 °C 2.1 °C 1027 hPa ESE 1.6 km/h 9.7 km/h 82 % 0 mm 0 W/m2
05:05 4.9 °C 2.1 °C 1027 hPa East 1.6 km/h 9.7 km/h 82 % 0 mm 0 W/m2
05:15 4.9 °C 2.1 °C 1026.6 hPa East 1.6 km/h 9.7 km/h 82 % 0 mm 0 W/m2
05:20 4.9 °C 2.1 °C 1026.6 hPa Calm   9.7 km/h 82 % 0 mm 0 W/m2
05:25 4.9 °C 2.1 °C 1026.6 hPa Calm   9.7 km/h 82 % 0 mm 0 W/m2
05:30 4.8 °C 2 °C 1026.6 hPa Calm   9.7 km/h 82 % 0 mm 0 W/m2
05:35 4.8 °C 2.2 °C 1026.6 hPa Calm   9.7 km/h 83 % 0 mm 0 W/m2
05:40 4.8 °C 2.2 °C 1026.6 hPa Calm   9.7 km/h 83 % 0 mm 0 W/m2
05:50 4.8 °C 2.2 °C 1026.6 hPa Calm   9.7 km/h 83 % 0 mm 0 W/m2
05:55 4.8 °C 2.2 °C 1026.6 hPa East 1.6 km/h 9.7 km/h 83 % 0 mm 0 W/m2
06:00 4.9 °C 2.2 °C 1026.6 hPa East 1.6 km/h 1.6 km/h 83 % 0 mm 0 W/m2
06:10 4.8 °C 2.2 °C 1026.6 hPa East 1.6 km/h 1.6 km/h 83 % 0 mm 0 W/m2
06:15 4.8 °C 2.2 °C 1026.6 hPa East 1.6 km/h 9.7 km/h 83 % 0 mm 0 W/m2
06:20 4.8 °C 2.1 °C 1026.6 hPa Calm   9.7 km/h 83 % 0 mm 0 W/m2
06:30 4.8 °C 2.1 °C 1026.6 hPa East 3.2 km/h 3.2 km/h 83 % 0 mm 0 W/m2
06:35 4.8 °C 2.2 °C 1026.6 hPa East 1.6 km/h 9.7 km/h 83 % 0 mm 0 W/m2
06:40 4.8 °C 2.2 °C 1026.6 hPa Calm   9.7 km/h 83 % 0 mm 0 W/m2
06:43 4.8 °C 2.2 °C 1026.6 hPa Calm   -1607.7 km/h 83 % 0 mm 0 W/m2
06:45 4.8 °C 2.2 °C 1026.6 hPa Calm   9.7 km/h 83 % 0 mm 0 W/m2
06:46 4.8 °C 2.2 °C 1026.6 hPa Calm   -1607.7 km/h 83 % 0 mm 0 W/m2
06:48 4.8 °C 2.2 °C 1026.6 hPa Calm   -1607.7 km/h 83 % 0 mm 0 W/m2
06:51 4.8 °C 2.2 °C 1026.6 hPa Calm   -1607.7 km/h 83 % 0 mm 0 W/m2
06:53 4.8 °C 2.2 °C 1027 hPa East 1.6 km/h -1607.7 km/h 83 % 0 mm 0 W/m2
06:55 4.8 °C 2.2 °C 1026.6 hPa Calm   9.7 km/h 83 % 0 mm 0 W/m2
06:56 4.8 °C 2.2 °C 1027 hPa East 1.6 km/h -1607.7 km/h 83 % 0 mm 0 W/m2
06:58 4.8 °C 2.2 °C 1027 hPa East 1.6 km/h -1607.7 km/h 83 % 0 mm 0 W/m2
07:00 4.8 °C 2.2 °C 1026.6 hPa Calm   9.7 km/h 83 % 0 mm 0 W/m2
07:01 4.8 °C 2.2 °C 1027 hPa East 1.6 km/h -1607.7 km/h 83 % 0 mm 0 W/m2
07:03 4.8 °C 2.2 °C 1027 hPa East 1.6 km/h -1607.7 km/h 83 % 0 mm 0 W/m2
07:05 4.9 °C 2.2 °C 1027 hPa East 1.6 km/h 9.7 km/h 83 % 0 mm 0 W/m2
07:06 4.8 °C 2.2 °C 1027 hPa East 1.6 km/h -1607.7 km/h 83 % 0 mm 0 W/m2
07:08 4.9 °C 2.2 °C 1027 hPa East 1.6 km/h -1607.7 km/h 83 % 0 mm 0 W/m2
07:10 4.9 °C 2.2 °C 1027 hPa Calm   9.7 km/h 83 % 0 mm 0 W/m2
07:11 4.9 °C 2.2 °C 1027 hPa East 1.6 km/h -1607.7 km/h 83 % 0 mm 0 W/m2
07:13 4.9 °C 2.2 °C 1027 hPa East 1.6 km/h -1607.7 km/h 83 % 0 mm 0 W/m2
07:15 4.9 °C 2.2 °C 1027 hPa East 1.6 km/h 9.7 km/h 83 % 0 mm 0 W/m2
07:16 4.9 °C 2.2 °C 1027 hPa East 1.6 km/h -1607.7 km/h 83 % 0 mm 0 W/m2
07:18 4.9 °C 2.2 °C 1027 hPa East 1.6 km/h -1607.7 km/h 83 % 0 mm 0 W/m2
07:20 4.9 °C 2.2 °C 1027 hPa ENE 1.6 km/h 1.6 km/h 83 % 0 mm 0 W/m2
07:21 4.9 °C 2.2 °C 1027 hPa East 1.6 km/h -1607.7 km/h 83 % 0 mm 0 W/m2
07:23 4.9 °C 2.3 °C 1027 hPa ENE 1.6 km/h -1607.7 km/h 83 % 0 mm 0 W/m2
07:26 4.9 °C 2.3 °C 1027 hPa ENE 1.6 km/h -1607.7 km/h 83 % 0 mm 0 W/m2
07:28 4.9 °C 2.3 °C 1027 hPa ENE 1.6 km/h -1607.7 km/h 83 % 0 mm 0 W/m2
07:30 4.9 °C 2.3 °C 1027 hPa ESE 1.6 km/h 9.7 km/h 83 % 0 mm 0 W/m2
07:31 4.9 °C 2.3 °C 1027 hPa ENE 1.6 km/h -1607.7 km/h 83 % 0 mm 0 W/m2
07:33 4.9 °C 2.3 °C 1027 hPa ENE 1.6 km/h -1607.7 km/h 83 % 0 mm 0 W/m2
07:35 5 °C 2.3 °C 1027 hPa East 1.6 km/h 9.7 km/h 83 % 0 mm 0 W/m2
07:36 4.9 °C 2.3 °C 1027 hPa ENE 1.6 km/h -1607.7 km/h 83 % 0 mm 0 W/m2
07:38 5 °C 2.3 °C 1027 hPa East 1.6 km/h -1607.7 km/h 83 % 0 mm 0 W/m2
07:40 5 °C 2.3 °C 1027 hPa East 1.6 km/h 9.7 km/h 83 % 0 mm 0 W/m2
07:41 5 °C 2.3 °C 1027 hPa East 1.6 km/h -1607.7 km/h 83 % 0 mm 0 W/m2
07:43 5 °C 2.3 °C 1027 hPa East 1.6 km/h -1607.7 km/h 83 % 0 mm 0 W/m2
07:45 5 °C 2.3 °C 1026.6 hPa East 1.6 km/h 9.7 km/h 83 % 0 mm 0 W/m2
07:46 5 °C 2.3 °C 1027 hPa East 1.6 km/h -1607.7 km/h 83 % 0 mm 0 W/m2
07:48 5 °C 2.3 °C 1027 hPa East 1.6 km/h -1607.7 km/h 83 % 0 mm 0 W/m2
07:50 5 °C 2.3 °C 1027 hPa Calm   9.7 km/h 83 % 0 mm 0 W/m2
07:51 5 °C 2.3 °C 1027 hPa East 1.6 km/h -1607.7 km/h 83 % 0 mm 0 W/m2
07:53 5 °C 2.5 °C 1026.6 hPa Calm   -1607.7 km/h 84 % 0 mm 0 W/m2
07:56 5 °C 2.5 °C 1026.6 hPa Calm   -1607.7 km/h 84 % 0 mm 0 W/m2
07:58 5 °C 2.5 °C 1026.6 hPa Calm   -1607.7 km/h 84 % 0 mm 0 W/m2
08:00 4.9 °C 2.4 °C 1027 hPa Calm   9.7 km/h 84 % 0 mm 0 W/m2
08:01 5 °C 2.5 °C 1026.6 hPa Calm   -1607.7 km/h 84 % 0 mm 0 W/m2
08:03 5 °C 2.5 °C 1026.6 hPa Calm   -1607.7 km/h 84 % 0 mm 0 W/m2
08:05 4.9 °C 2.4 °C 1026.6 hPa Calm   9.7 km/h 84 % 0 mm 0 W/m2
08:06 5 °C 2.5 °C 1026.6 hPa Calm   -1607.7 km/h 84 % 0 mm 0 W/m2
08:08 4.9 °C 2.4 °C 1027 hPa Calm   -1607.7 km/h 84 % 0 mm 7 W/m2
08:10 4.9 °C 2.4 °C 1027 hPa Calm   9.7 km/h 84 % 0 mm 5 W/m2
08:11 4.9 °C 2.4 °C 1027 hPa Calm   -1607.7 km/h 84 % 0 mm 7 W/m2
08:13 4.9 °C 2.4 °C 1027 hPa Calm   -1607.7 km/h 84 % 0 mm 7 W/m2
08:15 4.9 °C 2.4 °C 1027 hPa Calm   9.7 km/h 84 % 0 mm 7 W/m2
08:16 4.9 °C 2.4 °C 1027 hPa Calm   -1607.7 km/h 84 % 0 mm 7 W/m2
08:18 4.9 °C 2.4 °C 1027 hPa Calm   -1607.7 km/h 84 % 0 mm 7 W/m2
08:20 4.9 °C 2.4 °C 1027 hPa Calm   9.7 km/h 84 % 0 mm 11 W/m2
08:21 4.9 °C 2.4 °C 1027 hPa Calm   -1607.7 km/h 84 % 0 mm 7 W/m2
08:23 4.8 °C 2.3 °C 1027 hPa Calm   -1607.7 km/h 84 % 0 mm 16 W/m2
08:25 4.8 °C 2.3 °C 1027 hPa Calm   9.7 km/h 84 % 0 mm 12 W/m2
08:26 4.8 °C 2.3 °C 1027 hPa Calm   -1607.7 km/h 84 % 0 mm 16 W/m2
08:28 4.8 °C 2.3 °C 1027 hPa Calm   -1607.7 km/h 84 % 0 mm 16 W/m2
08:30 4.8 °C 2.3 °C 1027 hPa Calm   9.7 km/h 84 % 0 mm 16 W/m2
08:31 4.8 °C 2.3 °C 1027 hPa Calm   -1607.7 km/h 84 % 0 mm 16 W/m2
08:33 4.8 °C 2.3 °C 1027 hPa Calm   -1607.7 km/h 84 % 0 mm 16 W/m2
08:35 4.8 °C 2.3 °C 1027 hPa Calm   9.7 km/h 84 % 0 mm 23 W/m2
08:36 4.8 °C 2.3 °C 1027 hPa Calm   -1607.7 km/h 84 % 0 mm 16 W/m2
08:38 4.7 °C 2.2 °C 1027 hPa East 1.6 km/h -1607.7 km/h 84 % 0 mm 23 W/m2
08:40 4.7 °C 2.4 °C 1027 hPa Calm   9.7 km/h 85 % 0 mm 23 W/m2
08:41 4.7 °C 2.2 °C 1027 hPa East 1.6 km/h -1607.7 km/h 84 % 0 mm 23 W/m2
08:43 4.7 °C 2.2 °C 1027 hPa East 1.6 km/h -1607.7 km/h 84 % 0 mm 23 W/m2
08:45 4.7 °C 2.3 °C 1027 hPa East 1.6 km/h 9.7 km/h 85 % 0 mm 23 W/m2
08:46 4.7 °C 2.2 °C 1027 hPa East 1.6 km/h -1607.7 km/h 84 % 0 mm 23 W/m2
08:48 4.7 °C 2.2 °C 1027 hPa East 1.6 km/h -1607.7 km/h 84 % 0 mm 23 W/m2
08:50 4.6 °C 2.1 °C 1027 hPa ENE 1.6 km/h 1.6 km/h 84 % 0 mm 23 W/m2
08:51 4.7 °C 2.2 °C 1027 hPa East 1.6 km/h -1607.7 km/h 84 % 0 mm 23 W/m2
08:53 4.6 °C 2.3 °C 1027 hPa East 1.6 km/h -1607.7 km/h 85 % 0 mm 39 W/m2
08:55 4.6 °C 2.3 °C 1027 hPa ENE 1.6 km/h 9.7 km/h 85 % 0 mm 32 W/m2
08:56 4.6 °C 2.3 °C 1027 hPa East 1.6 km/h -1607.7 km/h 85 % 0 mm 39 W/m2
08:58 4.6 °C 2.3 °C 1027 hPa East 1.6 km/h -1607.7 km/h 85 % 0 mm 39 W/m2
09:01 4.6 °C 2.3 °C 1027 hPa East 1.6 km/h -1607.7 km/h 85 % 0 mm 39 W/m2
09:03 4.6 °C 2.3 °C 1027 hPa East 1.6 km/h -1607.7 km/h 85 % 0 mm 39 W/m2
09:05 4.6 °C 2.3 °C 1027 hPa East 1.6 km/h 9.7 km/h 85 % 0 mm 47 W/m2
09:06 4.6 °C 2.3 °C 1027 hPa East 1.6 km/h -1607.7 km/h 85 % 0 mm 39 W/m2
09:08 4.7 °C 2.5 °C 1027 hPa Calm   -1607.7 km/h 86 % 0 mm 51 W/m2
09:10 4.6 °C 2.4 °C 1027 hPa Calm   9.7 km/h 86 % 0 mm 42 W/m2
09:11 4.7 °C 2.5 °C 1027 hPa Calm   -1607.7 km/h 86 % 0 mm 51 W/m2
09:13 4.7 °C 2.5 °C 1027 hPa Calm   -1607.7 km/h 86 % 0 mm 51 W/m2
09:15 4.7 °C 2.5 °C 1027 hPa Calm   9.7 km/h 86 % 0 mm 47 W/m2
09:16 4.7 °C 2.5 °C 1027 hPa Calm   -1607.7 km/h 86 % 0 mm 51 W/m2
09:18 4.7 °C 2.5 °C 1027 hPa Calm   -1607.7 km/h 86 % 0 mm 51 W/m2
09:20 4.8 °C 2.6 °C 1027 hPa Calm   9.7 km/h 86 % 0 mm 60 W/m2
09:21 4.7 °C 2.5 °C 1027 hPa Calm   -1607.7 km/h 86 % 0 mm 51 W/m2
09:23 4.8 °C 2.5 °C 1027 hPa Calm   -1607.7 km/h 85 % 0 mm 54 W/m2
09:25 4.8 °C 2.5 °C 1027 hPa Calm   9.7 km/h 85 % 0 mm 39 W/m2
09:26 4.8 °C 2.5 °C 1027 hPa Calm   -1607.7 km/h 85 % 0 mm 54 W/m2
09:28 4.8 °C 2.5 °C 1027 hPa Calm   -1607.7 km/h 85 % 0 mm 54 W/m2
09:30 4.8 °C 2.5 °C 1027 hPa Calm   9.7 km/h 85 % 0 mm 54 W/m2
09:31 4.8 °C 2.5 °C 1027 hPa Calm   -1607.7 km/h 85 % 0 mm 54 W/m2
09:33 4.8 °C 2.5 °C 1027 hPa Calm   -1607.7 km/h 85 % 0 mm 54 W/m2
09:36 4.8 °C 2.5 °C 1027 hPa Calm   -1607.7 km/h 85 % 0 mm 54 W/m2
09:38 5.1 °C 2.7 °C 1027 hPa Calm   -1607.7 km/h 85 % 0 mm 97 W/m2
09:40 5 °C 2.7 °C 1027 hPa ESE 1.6 km/h 9.7 km/h 85 % 0 mm 91 W/m2
09:41 5.1 °C 2.7 °C 1027 hPa Calm   -1607.7 km/h 85 % 0 mm 97 W/m2
09:43 5.1 °C 2.7 °C 1027 hPa Calm   -1607.7 km/h 85 % 0 mm 97 W/m2
09:45 5.1 °C 2.8 °C 1027 hPa ESE 1.6 km/h 9.7 km/h 85 % 0 mm 81 W/m2
09:46 5.1 °C 2.7 °C 1027 hPa Calm   -1607.7 km/h 85 % 0 mm 97 W/m2
09:48 5.1 °C 2.7 °C 1027 hPa Calm   -1607.7 km/h 85 % 0 mm 97 W/m2
09:50 5.2 °C 2.9 °C 1027 hPa East 1.6 km/h 1.6 km/h 85 % 0 mm 174 W/m2
09:51 5.1 °C 2.7 °C 1027 hPa Calm   -1607.7 km/h 85 % 0 mm 97 W/m2
09:53 5.6 °C 2.9 °C 1027 hPa ESE 3.2 km/h -1607.7 km/h 83 % 0 mm 139 W/m2
09:55 5.5 °C 3.2 °C 1027 hPa East 1.6 km/h 9.7 km/h 85 % 0 mm 113 W/m2
09:56 5.6 °C 2.9 °C 1027 hPa ESE 3.2 km/h -1607.7 km/h 83 % 0 mm 139 W/m2
09:58 5.6 °C 2.9 °C 1027 hPa ESE 3.2 km/h -1607.7 km/h 83 % 0 mm 139 W/m2
10:00 5.7 °C 3.1 °C 1027 hPa ESE 1.6 km/h 9.7 km/h 83 % 0 mm 113 W/m2
10:01 5.6 °C 2.9 °C 1027 hPa ESE 3.2 km/h -1607.7 km/h 83 % 0 mm 139 W/m2
10:03 5.6 °C 2.9 °C 1027 hPa ESE 3.2 km/h -1607.7 km/h 83 % 0 mm 139 W/m2
10:06 5.6 °C 2.9 °C 1027 hPa ESE 3.2 km/h -1607.7 km/h 83 % 0 mm 139 W/m2
10:08 6.3 °C 3.1 °C 1027 hPa ESE 4.8 km/h -1607.7 km/h 80 % 0 mm 186 W/m2
10:10 6.2 °C 3.3 °C 1027 hPa East 3.2 km/h 9.7 km/h 82 % 0 mm 186 W/m2
10:11 6.3 °C 3.1 °C 1027 hPa ESE 4.8 km/h -1607.7 km/h 80 % 0 mm 186 W/m2
10:13 6.3 °C 3.1 °C 1027 hPa ESE 4.8 km/h -1607.7 km/h 80 % 0 mm 186 W/m2
10:15 6.4 °C 3.4 °C 1027 hPa SE 3.2 km/h 9.7 km/h 81 % 0 mm 192 W/m2
10:16 6.3 °C 3.1 °C 1027 hPa ESE 4.8 km/h -1607.7 km/h 80 % 0 mm 186 W/m2
10:18 6.3 °C 3.1 °C 1027 hPa ESE 4.8 km/h -1607.7 km/h 80 % 0 mm 186 W/m2
10:20 6.6 °C 3.4 °C 1027 hPa East 4.8 km/h 9.7 km/h 80 % 0 mm 199 W/m2
10:21 6.3 °C 3.1 °C 1027 hPa ESE 4.8 km/h -1607.7 km/h 80 % 0 mm 186 W/m2
10:23 6.9 °C 3.6 °C 1027 hPa ESE 4.8 km/h -1607.7 km/h 79 % 0 mm 209 W/m2
10:25 6.8 °C 3.6 °C 1027 hPa East 4.8 km/h 9.7 km/h 80 % 0 mm 206 W/m2
10:26 6.9 °C 3.6 °C 1027 hPa ESE 4.8 km/h -1607.7 km/h 79 % 0 mm 209 W/m2
10:28 6.9 °C 3.6 °C 1027 hPa ESE 4.8 km/h -1607.7 km/h 79 % 0 mm 209 W/m2
10:30 7.1 °C 3.8 °C 1027 hPa ESE 4.8 km/h 9.7 km/h 80 % 0 mm 211 W/m2
10:31 6.9 °C 3.6 °C 1027 hPa ESE 4.8 km/h -1607.7 km/h 79 % 0 mm 209 W/m2
10:33 6.9 °C 3.6 °C 1027 hPa ESE 4.8 km/h -1607.7 km/h 79 % 0 mm 209 W/m2
10:36 6.9 °C 3.6 °C 1027 hPa ESE 4.8 km/h -1607.7 km/h 79 % 0 mm 209 W/m2
10:38 7.3 °C 3.7 °C 1027 hPa ESE 8 km/h -1607.7 km/h 78 % 0 mm 226 W/m2
10:40 7.3 °C 3.9 °C 1027 hPa ESE 6.4 km/h 9.7 km/h 79 % 0 mm 221 W/m2
10:41 7.3 °C 3.7 °C 1027 hPa ESE 8 km/h -1607.7 km/h 78 % 0 mm 226 W/m2
10:43 7.3 °C 3.7 °C 1027 hPa ESE 8 km/h -1607.7 km/h 78 % 0 mm 226 W/m2
10:45 7.4 °C 4 °C 1027 hPa ESE 6.4 km/h 9.7 km/h 79 % 0 mm 229 W/m2
10:46 7.3 °C 3.7 °C 1027 hPa ESE 8 km/h -1607.7 km/h 78 % 0 mm 226 W/m2
10:48 7.3 °C 3.7 °C 1027 hPa ESE 8 km/h -1607.7 km/h 78 % 0 mm 226 W/m2
10:50 7.4 °C 3.8 °C 1027 hPa East 8 km/h 8 km/h 78 % 0 mm 232 W/m2
10:51 7.3 °C 3.7 °C 1027 hPa ESE 8 km/h -1607.7 km/h 78 % 0 mm 226 W/m2
10:53 7.5 °C 3.9 °C 1026.6 hPa ESE 9.7 km/h -1607.7 km/h 78 % 0 mm 239 W/m2
10:56 7.5 °C 3.9 °C 1026.6 hPa ESE 9.7 km/h -1607.7 km/h 78 % 0 mm 239 W/m2
10:58 7.5 °C 3.9 °C 1026.6 hPa ESE 9.7 km/h -1607.7 km/h 78 % 0 mm 239 W/m2
11:00 7.5 °C 3.9 °C 1026.6 hPa ESE 8 km/h 8 km/h 78 % 0 mm 244 W/m2
11:01 7.5 °C 3.9 °C 1026.6 hPa ESE 9.7 km/h -1607.7 km/h 78 % 0 mm 239 W/m2
11:03 7.5 °C 3.9 °C 1026.6 hPa ESE 9.7 km/h -1607.7 km/h 78 % 0 mm 239 W/m2
11:05 7.5 °C 3.9 °C 1026.6 hPa SE 9.7 km/h 9.7 km/h 78 % 0 mm 244 W/m2
11:06 7.5 °C 3.9 °C 1026.6 hPa ESE 9.7 km/h -1607.7 km/h 78 % 0 mm 239 W/m2
11:08 7.6 °C 3.6 °C 1026.6 hPa SE 9.7 km/h -1607.7 km/h 76 % 0 mm 245 W/m2
11:10 7.5 °C 3.7 °C 1026.6 hPa East 11.3 km/h 11.3 km/h 77 % 0 mm 248 W/m2
11:11 7.6 °C 3.6 °C 1026.6 hPa SE 9.7 km/h -1607.7 km/h 76 % 0 mm 245 W/m2
11:13 7.6 °C 3.6 °C 1026.6 hPa SE 9.7 km/h -1607.7 km/h 76 % 0 mm 245 W/m2
11:16 7.6 °C 3.6 °C 1026.6 hPa SE 9.7 km/h -1607.7 km/h 76 % 0 mm 245 W/m2
11:18 7.6 °C 3.6 °C 1026.6 hPa SE 9.7 km/h -1607.7 km/h 76 % 0 mm 245 W/m2
11:20 7.7 °C 3.7 °C 1026.6 hPa ESE 9.7 km/h 12.9 km/h 76 % 0 mm 253 W/m2
11:21 7.6 °C 3.6 °C 1026.6 hPa SE 9.7 km/h -1607.7 km/h 76 % 0 mm 245 W/m2
11:23 7.7 °C 3.7 °C 1026.3 hPa ESE 9.7 km/h -1607.7 km/h 76 % 0 mm 260 W/m2
11:25 7.7 °C 3.9 °C 1026.6 hPa NE 9.7 km/h 12.9 km/h 77 % 0 mm 267 W/m2
11:26 7.7 °C 3.7 °C 1026.3 hPa ESE 9.7 km/h -1607.7 km/h 76 % 0 mm 260 W/m2
11:28 7.7 °C 3.7 °C 1026.3 hPa ESE 9.7 km/h -1607.7 km/h 76 % 0 mm 260 W/m2
11:30 7.7 °C 3.5 °C 1026.6 hPa East 11.3 km/h 11.3 km/h 75 % 0 mm 262 W/m2
11:31 7.7 °C 3.7 °C 1026.3 hPa ESE 9.7 km/h -1607.7 km/h 76 % 0 mm 260 W/m2
11:33 7.7 °C 3.7 °C 1026.3 hPa ESE 9.7 km/h -1607.7 km/h 76 % 0 mm 260 W/m2
11:35 7.7 °C 3.7 °C 1026.3 hPa ESE 11.3 km/h 11.3 km/h 76 % 0 mm 258 W/m2
11:36 7.7 °C 3.7 °C 1026.3 hPa ESE 9.7 km/h -1607.7 km/h 76 % 0 mm 260 W/m2
11:38 7.6 °C 3.4 °C 1026.3 hPa ESE 9.7 km/h -1607.7 km/h 75 % 0 mm 261 W/m2
11:40 7.7 °C 3.5 °C 1026.3 hPa ESE 9.7 km/h 9.7 km/h 75 % 0 mm 264 W/m2
11:41 7.6 °C 3.4 °C 1026.3 hPa ESE 9.7 km/h -1607.7 km/h 75 % 0 mm 261 W/m2
11:43 7.6 °C 3.4 °C 1026.3 hPa ESE 9.7 km/h -1607.7 km/h 75 % 0 mm 261 W/m2
11:46 7.6 °C 3.4 °C 1026.3 hPa ESE 9.7 km/h -1607.7 km/h 75 % 0 mm 261 W/m2
11:48 7.6 °C 3.4 °C 1026.3 hPa ESE 9.7 km/h -1607.7 km/h 75 % 0 mm 261 W/m2
11:50 7.6 °C 3.4 °C 1026.3 hPa ESE 9.7 km/h 9.7 km/h 75 % 0 mm 260 W/m2
11:51 7.6 °C 3.4 °C 1026.3 hPa ESE 9.7 km/h -1607.7 km/h 75 % 0 mm 261 W/m2
11:53 7.7 °C 3.4 °C 1026.3 hPa ESE 11.3 km/h -1607.7 km/h 74 % 0 mm 259 W/m2
11:55 7.7 °C 3.6 °C 1026.3 hPa ESE 9.7 km/h 9.7 km/h 75 % 0 mm 262 W/m2
11:56 7.7 °C 3.4 °C 1026.3 hPa ESE 11.3 km/h -1607.7 km/h 74 % 0 mm 259 W/m2
11:58 7.7 °C 3.4 °C 1026.3 hPa ESE 11.3 km/h -1607.7 km/h 74 % 0 mm 259 W/m2
12:00 7.7 °C 3.4 °C 1026.3 hPa SE 11.3 km/h 14.5 km/h 74 % 0 mm 262 W/m2
12:01 7.7 °C 3.4 °C 1026.3 hPa ESE 11.3 km/h -1607.7 km/h 74 % 0 mm 259 W/m2
12:03 7.7 °C 3.4 °C 1026.3 hPa ESE 11.3 km/h -1607.7 km/h 74 % 0 mm 259 W/m2
12:05 7.7 °C 3.4 °C 1026.3 hPa ESE 11.3 km/h 14.5 km/h 74 % 0 mm 267 W/m2
12:06 7.7 °C 3.4 °C 1026.3 hPa ESE 11.3 km/h -1607.7 km/h 74 % 0 mm 259 W/m2
12:08 7.7 °C 3.4 °C 1026.3 hPa ESE 11.3 km/h -1607.7 km/h 74 % 0 mm 238 W/m2
12:10 7.8 °C 3.4 °C 1026.3 hPa ESE 11.3 km/h 11.3 km/h 74 % 0 mm 264 W/m2
12:11 7.7 °C 3.4 °C 1026.3 hPa ESE 11.3 km/h -1607.7 km/h 74 % 0 mm 238 W/m2
12:13 7.7 °C 3.4 °C 1026.3 hPa ESE 11.3 km/h -1607.7 km/h 74 % 0 mm 238 W/m2
12:15 7.7 °C 3.2 °C 1026.3 hPa ESE 11.3 km/h 11.3 km/h 73 % 0 mm 267 W/m2
12:16 7.7 °C 3.4 °C 1026.3 hPa ESE 11.3 km/h -1607.7 km/h 74 % 0 mm 238 W/m2
12:18 7.7 °C 3.4 °C 1026.3 hPa ESE 11.3 km/h -1607.7 km/h 74 % 0 mm 238 W/m2
12:21 7.7 °C 3.4 °C 1026.3 hPa ESE 11.3 km/h -1607.7 km/h 74 % 0 mm 238 W/m2
12:23 7.2 °C 3.3 °C 1026 hPa ESE 12.9 km/h -1607.7 km/h 76 % 0 mm 60 W/m2
12:25 7.4 °C 3.1 °C 1026.3 hPa ESE 11.3 km/h 12.9 km/h 74 % 0 mm 74 W/m2
12:26 7.2 °C 3.3 °C 1026 hPa ESE 12.9 km/h -1607.7 km/h 76 % 0 mm 60 W/m2
12:28 7.2 °C 3.3 °C 1026 hPa ESE 12.9 km/h -1607.7 km/h 76 % 0 mm 60 W/m2
12:30 7.1 °C 3 °C 1026 hPa ESE 12.9 km/h 16.1 km/h 75 % 0 mm 47 W/m2
12:31 7.2 °C 3.3 °C 1026 hPa ESE 12.9 km/h -1607.7 km/h 76 % 0 mm 60 W/m2
12:33 7.2 °C 3.3 °C 1026 hPa ESE 12.9 km/h -1607.7 km/h 76 % 0 mm 60 W/m2
12:35 6.9 °C 2.9 °C 1026 hPa SE 12.9 km/h 16.1 km/h 76 % 0 mm 54 W/m2
12:36 7.2 °C 3.3 °C 1026 hPa ESE 12.9 km/h -1607.7 km/h 76 % 0 mm 60 W/m2
12:38 6.6 °C 3.1 °C 1026 hPa ESE 9.7 km/h -1607.7 km/h 78 % 0 mm 62 W/m2
12:40 6.7 °C 2.9 °C 1026 hPa ESE 11.3 km/h 12.9 km/h 77 % 0 mm 70 W/m2
12:41 6.6 °C 3.1 °C 1026 hPa ESE 9.7 km/h -1607.7 km/h 78 % 0 mm 62 W/m2
12:43 6.6 °C 3.1 °C 1026 hPa ESE 9.7 km/h -1607.7 km/h 78 % 0 mm 62 W/m2
12:45 6.6 °C 3 °C 1026 hPa ESE 11.3 km/h 12.9 km/h 78 % 0 mm 63 W/m2
12:46 6.6 °C 3.1 °C 1026 hPa ESE 9.7 km/h -1607.7 km/h 78 % 0 mm 62 W/m2
12:48 6.6 °C 3.1 °C 1026 hPa ESE 9.7 km/h -1607.7 km/h 78 % 0 mm 62 W/m2
12:51 6.6 °C 3.1 °C 1026 hPa ESE 9.7 km/h -1607.7 km/h 78 % 0 mm 62 W/m2
12:53 6.4 °C 3 °C 1026 hPa ESE 9.7 km/h -1607.7 km/h 79 % 0 mm 76 W/m2
12:55 6.4 °C 2.8 °C 1026 hPa ESE 8 km/h 11.3 km/h 78 % 0 mm 74 W/m2
12:56 6.4 °C 3 °C 1026 hPa ESE 9.7 km/h -1607.7 km/h 79 % 0 mm 76 W/m2
12:58 6.4 °C 3 °C 1026 hPa ESE 9.7 km/h -1607.7 km/h 79 % 0 mm 76 W/m2
13:00 6.4 °C 3 °C 1026 hPa ESE 9.7 km/h 9.7 km/h 79 % 0 mm 128 W/m2
13:01 6.4 °C 3 °C 1026 hPa ESE 9.7 km/h -1607.7 km/h 79 % 0 mm 76 W/m2
13:03 6.4 °C 3 °C 1026 hPa ESE 9.7 km/h -1607.7 km/h 79 % 0 mm 76 W/m2
13:05 6.4 °C 3 °C 1026 hPa ESE 9.7 km/h 9.7 km/h 79 % 0 mm 51 W/m2
13:06 6.4 °C 3 °C 1026 hPa ESE 9.7 km/h -1607.7 km/h 79 % 0 mm 76 W/m2
13:08 6.3 °C 2.9 °C 1025.6 hPa ESE 8 km/h -1607.7 km/h 79 % 0 mm 48 W/m2
13:10 6.3 °C 2.9 °C 1025.6 hPa SE 9.7 km/h 9.7 km/h 79 % 0 mm 54 W/m2
13:11 6.3 °C 2.9 °C 1025.6 hPa ESE 8 km/h -1607.7 km/h 79 % 0 mm 48 W/m2
13:13 6.3 °C 2.9 °C 1025.6 hPa ESE 8 km/h -1607.7 km/h 79 % 0 mm 48 W/m2
13:15 6.3 °C 2.9 °C 1025.6 hPa ESE 9.7 km/h 9.7 km/h 79 % 0 mm 44 W/m2
13:16 6.3 °C 2.9 °C 1025.6 hPa ESE 8 km/h -1607.7 km/h 79 % 0 mm 48 W/m2
13:18 6.3 °C 2.9 °C 1025.6 hPa ESE 8 km/h -1607.7 km/h 79 % 0 mm 48 W/m2
13:20 6.3 °C 2.9 °C 1025.6 hPa ESE 8 km/h 12.9 km/h 79 % 0 mm 46 W/m2
13:21 6.3 °C 2.9 °C 1025.6 hPa ESE 8 km/h -1607.7 km/h 79 % 0 mm 48 W/m2
13:23 6.2 °C 3 °C 1025.6 hPa ESE 8 km/h -1607.7 km/h 80 % 0 mm 59 W/m2
13:26 6.2 °C 3 °C 1025.6 hPa ESE 8 km/h -1607.7 km/h 80 % 0 mm 59 W/m2
13:28 6.2 °C 3 °C 1025.6 hPa ESE 8 km/h -1607.7 km/h 80 % 0 mm 59 W/m2
13:30 6.2 °C 3 °C 1025.6 hPa ESE 8 km/h 8 km/h 80 % 0 mm 56 W/m2
13:31 6.2 °C 3 °C 1025.6 hPa ESE 8 km/h -1607.7 km/h 80 % 0 mm 59 W/m2
13:33 6.2 °C 3 °C 1025.6 hPa ESE 8 km/h -1607.7 km/h 80 % 0 mm 59 W/m2
13:35 6.2 °C 3 °C 1025.6 hPa East 8 km/h 9.7 km/h 80 % 0 mm 53 W/m2
13:36 6.2 °C 3 °C 1025.6 hPa ESE 8 km/h -1607.7 km/h 80 % 0 mm 59 W/m2
13:38 6.2 °C 3 °C 1025.6 hPa SE 4.8 km/h -1607.7 km/h 80 % 0 mm 86 W/m2
13:40 6.2 °C 3 °C 1025.6 hPa SE 8 km/h 9.7 km/h 80 % 0 mm 65 W/m2
13:41 6.2 °C 3 °C 1025.6 hPa SE 4.8 km/h -1607.7 km/h 80 % 0 mm 86 W/m2
13:43 6.2 °C 3 °C 1025.6 hPa SE 4.8 km/h -1607.7 km/h 80 % 0 mm 86 W/m2
13:45 6.2 °C 3 °C 1025.6 hPa SE 4.8 km/h 11.3 km/h 80 % 0 mm 114 W/m2
13:46 6.2 °C 3 °C 1025.6 hPa SE 4.8 km/h -1607.7 km/h 80 % 0 mm 86 W/m2
13:48 6.2 °C 3 °C 1025.6 hPa SE 4.8 km/h -1607.7 km/h 80 % 0 mm 86 W/m2
13:50 6.3 °C 3.1 °C 1025.6 hPa ESE 4.8 km/h 4.8 km/h 80 % 0 mm 98 W/m2
13:51 6.2 °C 3 °C 1025.6 hPa SE 4.8 km/h -1607.7 km/h 80 % 0 mm 86 W/m2
13:53 6.4 °C 3.2 °C 1025.6 hPa SE 4.8 km/h -1607.7 km/h 80 % 0 mm 121 W/m2
13:56 6.4 °C 3.2 °C 1025.6 hPa SE 4.8 km/h -1607.7 km/h 80 % 0 mm 121 W/m2
13:58 6.4 °C 3.2 °C 1025.6 hPa SE 4.8 km/h -1607.7 km/h 80 % 0 mm 121 W/m2
14:00 6.4 °C 3.2 °C 1025.6 hPa SE 4.8 km/h 9.7 km/h 80 % 0 mm 199 W/m2
14:01 6.4 °C 3.2 °C 1025.6 hPa SE 4.8 km/h -1607.7 km/h 80 % 0 mm 121 W/m2
14:03 6.4 °C 3.2 °C 1025.6 hPa SE 4.8 km/h -1607.7 km/h 80 % 0 mm 121 W/m2
14:05 6.6 °C 3.4 °C 1025.6 hPa ESE 4.8 km/h 9.7 km/h 80 % 0 mm 76 W/m2
14:06 6.4 °C 3.2 °C 1025.6 hPa SE 4.8 km/h -1607.7 km/h 80 % 0 mm 121 W/m2
14:08 6.7 °C 3.3 °C 1025.6 hPa ESE 3.2 km/h -1607.7 km/h 79 % 0 mm 53 W/m2
14:10 6.7 °C 3.3 °C 1025.6 hPa ESE 4.8 km/h 9.7 km/h 79 % 0 mm 63 W/m2
14:11 6.7 °C 3.3 °C 1025.6 hPa ESE 3.2 km/h -1607.7 km/h 79 % 0 mm 53 W/m2
14:13 6.7 °C 3.3 °C 1025.6 hPa ESE 3.2 km/h -1607.7 km/h 79 % 0 mm 53 W/m2
14:15 6.7 °C 3.1 °C 1025.6 hPa East 4.8 km/h 9.7 km/h 78 % 0 mm 46 W/m2
14:16 6.7 °C 3.3 °C 1025.6 hPa ESE 3.2 km/h -1607.7 km/h 79 % 0 mm 53 W/m2
14:20 6.7 °C 3.3 °C 1025.6 hPa East 4.8 km/h 4.8 km/h 79 % 0 mm 42 W/m2
14:21 6.7 °C 3.3 °C 1025.6 hPa ESE 3.2 km/h -1607.7 km/h 79 % 0 mm 53 W/m2
14:25 6.6 °C 3 °C 1025.6 hPa East 4.8 km/h 9.7 km/h 78 % 0 mm 35 W/m2
14:26 6.5 °C 3.1 °C 1025.6 hPa East 4.8 km/h -1607.7 km/h 79 % 0 mm 33 W/m2
14:31 6.5 °C 3.1 °C 1025.6 hPa East 4.8 km/h -1607.7 km/h 79 % 0 mm 33 W/m2
14:35 6.4 °C 3 °C 1025.6 hPa ENE 4.8 km/h 11.3 km/h 79 % 0 mm 32 W/m2
14:36 6.5 °C 3.1 °C 1025.6 hPa East 4.8 km/h -1607.7 km/h 79 % 0 mm 33 W/m2
14:40 6.3 °C 2.9 °C 1025.6 hPa East 4.8 km/h 11.3 km/h 79 % 0 mm 26 W/m2
14:41 6.3 °C 3.1 °C 1025.6 hPa East 4.8 km/h -1607.7 km/h 80 % 0 mm 28 W/m2
14:45 6.3 °C 2.9 °C 1025.6 hPa ESE 4.8 km/h 4.8 km/h 79 % 0 mm 26 W/m2
14:46 6.3 °C 3.1 °C 1025.6 hPa East 4.8 km/h -1607.7 km/h 80 % 0 mm 28 W/m2
14:50 6.3 °C 3.1 °C 1025.6 hPa ESE 3.2 km/h 4.8 km/h 80 % 0 mm 30 W/m2
14:51 6.3 °C 3.1 °C 1025.6 hPa East 4.8 km/h -1607.7 km/h 80 % 0 mm 28 W/m2
14:55 6.3 °C 3.1 °C 1025.6 hPa ENE 3.2 km/h 8 km/h 80 % 0 mm 26 W/m2
14:56 6.2 °C 3 °C 1025.6 hPa East 3.2 km/h -1607.7 km/h 80 % 0 mm 22 W/m2
15:01 6.2 °C 3 °C 1025.6 hPa East 3.2 km/h -1607.7 km/h 80 % 0 mm 22 W/m2
15:05 6.2 °C 3 °C 1025.6 hPa East 3.2 km/h 3.2 km/h 80 % 0 mm 16 W/m2
15:06 6.2 °C 3 °C 1025.6 hPa East 3.2 km/h -1607.7 km/h 80 % 0 mm 22 W/m2
15:10 6.2 °C 3 °C 1025.6 hPa East 3.2 km/h 3.2 km/h 80 % 0 mm 18 W/m2
15:11 6.2 °C 3.2 °C 1025.6 hPa ESE 3.2 km/h -1607.7 km/h 81 % 0 mm 15 W/m2
15:16 6.2 °C 3.2 °C 1025.6 hPa ESE 3.2 km/h -1607.7 km/h 81 % 0 mm 15 W/m2
15:21 6.2 °C 3.2 °C 1025.6 hPa ESE 3.2 km/h -1607.7 km/h 81 % 0 mm 15 W/m2
15:26 6.2 °C 3.2 °C 1025.6 hPa ESE 3.2 km/h -1607.7 km/h 81 % 0 mm 10 W/m2
15:31 6.2 °C 3.2 °C 1025.6 hPa ESE 3.2 km/h -1607.7 km/h 81 % 0 mm 10 W/m2
15:36 6.2 °C 3.2 °C 1025.6 hPa ESE 3.2 km/h -1607.7 km/h 81 % 0 mm 10 W/m2
15:41 5.9 °C 3.1 °C 1025.6 hPa East 3.2 km/h -1607.7 km/h 82 % 0 mm 4 W/m2
15:46 5.9 °C 3.1 °C 1025.6 hPa East 3.2 km/h -1607.7 km/h 82 % 0 mm 4 W/m2
15:51 5.9 °C 3.1 °C 1025.6 hPa East 3.2 km/h -1607.7 km/h 82 % 0 mm 4 W/m2
15:56 5.5 °C 2.7 °C 1025.6 hPa East 1.6 km/h -1607.7 km/h 82 % 0 mm 0 W/m2
16:01 5.5 °C 2.7 °C 1025.6 hPa East 1.6 km/h -1607.7 km/h 82 % 0 mm 0 W/m2
16:06 5.5 °C 2.7 °C 1025.6 hPa East 1.6 km/h -1607.7 km/h 82 % 0 mm 0 W/m2
16:11 5.1 °C 2.4 °C 1025.6 hPa East 1.6 km/h -1607.7 km/h 83 % 0 mm 0 W/m2
16:16 5.1 °C 2.4 °C 1025.6 hPa East 1.6 km/h -1607.7 km/h 83 % 0 mm 0 W/m2
16:21 5.1 °C 2.4 °C 1025.6 hPa East 1.6 km/h -1607.7 km/h 83 % 0 mm 0 W/m2
16:26 4.6 °C 2.3 °C 1025.6 hPa East 1.6 km/h -1607.7 km/h 85 % 0 mm 0 W/m2
16:31 4.6 °C 2.3 °C 1025.6 hPa East 1.6 km/h -1607.7 km/h 85 % 0 mm 0 W/m2
16:36 4.6 °C 2.3 °C 1025.6 hPa East 1.6 km/h -1607.7 km/h 85 % 0 mm 0 W/m2
16:41 4.3 °C 2.2 °C 1025.6 hPa East 1.6 km/h -1607.7 km/h 86 % 0 mm 0 W/m2
16:46 4.3 °C 2.2 °C 1025.6 hPa East 1.6 km/h -1607.7 km/h 86 % 0 mm 0 W/m2
16:51 4.3 °C 2.2 °C 1025.6 hPa East 1.6 km/h -1607.7 km/h 86 % 0 mm 0 W/m2
16:56 4.1 °C 2.1 °C 1025.6 hPa Calm   -1607.7 km/h 87 % 0 mm 0 W/m2
17:01 4.1 °C 2.1 °C 1025.6 hPa Calm   -1607.7 km/h 87 % 0 mm 0 W/m2
17:06 4.1 °C 2.1 °C 1025.6 hPa Calm   -1607.7 km/h 87 % 0 mm 0 W/m2
17:11 3.6 °C 1.7 °C 1025.6 hPa Calm   -1607.7 km/h 87 % 0 mm 0 W/m2
17:16 3.6 °C 1.7 °C 1025.6 hPa Calm   -1607.7 km/h 87 % 0 mm 0 W/m2
17:21 3.6 °C 1.7 °C 1025.6 hPa Calm   -1607.7 km/h 87 % 0 mm 0 W/m2
17:26 3.1 °C 1.4 °C 1026 hPa Calm   -1607.7 km/h 89 % 0 mm 0 W/m2
17:31 3.1 °C 1.4 °C 1026 hPa Calm   -1607.7 km/h 89 % 0 mm 0 W/m2
17:36 3.1 °C 1.4 °C 1026 hPa Calm   -1607.7 km/h 89 % 0 mm 0 W/m2
17:41 2.7 °C 1.2 °C 1026 hPa Calm   -1607.7 km/h 90 % 0 mm 0 W/m2
17:46 2.7 °C 1.2 °C 1026 hPa Calm   -1607.7 km/h 90 % 0 mm 0 W/m2
17:51 2.7 °C 1.2 °C 1026 hPa Calm   -1607.7 km/h 90 % 0 mm 0 W/m2
17:56 2.3 °C 0.8 °C 1026 hPa Calm   -1607.7 km/h 90 % 0 mm 0 W/m2
18:01 2.3 °C 0.8 °C 1026 hPa Calm   -1607.7 km/h 90 % 0 mm 0 W/m2
18:06 2.3 °C 0.8 °C 1026 hPa Calm   -1607.7 km/h 90 % 0 mm 0 W/m2
18:11 2 °C 0.6 °C 1026 hPa Calm   -1607.7 km/h 90 % 0 mm 0 W/m2
18:16 2 °C 0.6 °C 1026 hPa Calm   -1607.7 km/h 90 % 0 mm 0 W/m2
18:21 2 °C 0.6 °C 1026 hPa Calm   -1607.7 km/h 90 % 0 mm 0 W/m2
18:26 1.6 °C 0.1 °C 1026 hPa Calm   -1607.7 km/h 90 % 0 mm 0 W/m2
18:31 1.6 °C 0.1 °C 1026 hPa Calm   -1607.7 km/h 90 % 0 mm 0 W/m2
18:36 1.6 °C 0.1 °C 1026 hPa Calm   -1607.7 km/h 90 % 0 mm 0 W/m2
18:41 1 °C -0.3 °C 1026 hPa Calm   -1607.7 km/h 91 % 0 mm 0 W/m2
18:46 1 °C -0.3 °C 1026 hPa Calm   -1607.7 km/h 91 % 0 mm 0 W/m2
18:51 1 °C -0.3 °C 1026 hPa Calm   -1607.7 km/h 91 % 0 mm 0 W/m2
18:56 0.5 °C -0.7 °C 1026.3 hPa Calm   -1607.7 km/h 92 % 0 mm 0 W/m2
19:01 0.5 °C -0.7 °C 1026.3 hPa Calm   -1607.7 km/h 92 % 0 mm 0 W/m2
19:06 0.5 °C -0.7 °C 1026.3 hPa Calm   -1607.7 km/h 92 % 0 mm 0 W/m2
19:11 0.3 °C -0.7 °C 1026.3 hPa Calm   -1607.7 km/h 93 % 0 mm 0 W/m2
19:16 0.3 °C -0.7 °C 1026.3 hPa Calm   -1607.7 km/h 93 % 0 mm 0 W/m2
19:21 0.3 °C -0.7 °C 1026.3 hPa Calm   -1607.7 km/h 93 % 0 mm 0 W/m2
19:26 0.2 °C -0.8 °C 1026.3 hPa Calm   -1607.7 km/h 93 % 0 mm 0 W/m2
19:31 0.2 °C -0.8 °C 1026.3 hPa Calm   -1607.7 km/h 93 % 0 mm 0 W/m2
19:36 0.2 °C -0.8 °C 1026.3 hPa Calm   -1607.7 km/h 93 % 0 mm 0 W/m2
19:40 0.1 °C -0.9 °C 1026.3 hPa Calm   9.7 km/h 93 % 0 mm 0 W/m2
19:41 0 °C -1 °C 1026 hPa Calm   -1607.7 km/h 93 % 0 mm 0 W/m2
19:45 0 °C -1 °C 1026.3 hPa Calm   9.7 km/h 93 % 0 mm 0 W/m2
19:46 0 °C -1 °C 1026 hPa Calm   -1607.7 km/h 93 % 0 mm 0 W/m2
19:50 -0.1 °C -1.1 °C 1026 hPa Calm   9.7 km/h 93 % 0 mm 0 W/m2
19:51 0 °C -1 °C 1026 hPa Calm   -1607.7 km/h 93 % 0 mm 0 W/m2
19:55 -0.2 °C -1.2 °C 1026 hPa Calm   9.7 km/h 93 % 0 mm 0 W/m2
19:56 -0.2 °C -1.2 °C 1026.3 hPa Calm   -1607.7 km/h 93 % 0 mm 0 W/m2
20:00 -0.3 °C -1.3 °C 1026.3 hPa Calm   9.7 km/h 93 % 0 mm 0 W/m2
20:01 -0.2 °C -1.2 °C 1026.3 hPa Calm   -1607.7 km/h 93 % 0 mm 0 W/m2
20:06 -0.2 °C -1.2 °C 1026.3 hPa Calm   -1607.7 km/h 93 % 0 mm 0 W/m2
20:10 -0.4 °C -1.4 °C 1026.3 hPa Calm   9.7 km/h 93 % 0 mm 0 W/m2
20:11 -0.5 °C -1.3 °C 1026.3 hPa Calm   -1607.7 km/h 94 % 0 mm 0 W/m2
20:15 -0.6 °C -1.6 °C 1026.3 hPa Calm   9.7 km/h 93 % 0 mm 0 W/m2
20:16 -0.5 °C -1.3 °C 1026.3 hPa Calm   -1607.7 km/h 94 % 0 mm 0 W/m2
20:20 -0.6 °C -1.4 °C 1026.3 hPa Calm   9.7 km/h 94 % 0 mm 0 W/m2
20:21 -0.5 °C -1.3 °C 1026.3 hPa Calm   -1607.7 km/h 94 % 0 mm 0 W/m2
20:25 -0.7 °C -1.7 °C 1026.3 hPa Calm   9.7 km/h 93 % 0 mm 0 W/m2
20:26 -0.7 °C -1.5 °C 1026.3 hPa Calm   -1607.7 km/h 94 % 0 mm 0 W/m2
20:31 -0.7 °C -1.5 °C 1026.3 hPa Calm   -1607.7 km/h 94 % 0 mm 0 W/m2
20:36 -0.7 °C -1.5 °C 1026.3 hPa Calm   -1607.7 km/h 94 % 0 mm 0 W/m2
20:41 -0.8 °C -1.7 °C 1026.3 hPa Calm   -1607.7 km/h 94 % 0 mm 0 W/m2
20:46 -0.8 °C -1.7 °C 1026.3 hPa Calm   -1607.7 km/h 94 % 0 mm 0 W/m2
20:51 -0.8 °C -1.7 °C 1026.3 hPa Calm   -1607.7 km/h 94 % 0 mm 0 W/m2
20:56 -1 °C -1.8 °C 1026.3 hPa Calm   -1607.7 km/h 94 % 0 mm 0 W/m2
21:01 -1 °C -1.8 °C 1026.3 hPa Calm   -1607.7 km/h 94 % 0 mm 0 W/m2
21:06 -1 °C -1.8 °C 1026.3 hPa Calm   -1607.7 km/h 94 % 0 mm 0 W/m2
21:11 -1.2 °C -2 °C 1026.3 hPa Calm   -1607.7 km/h 94 % 0 mm 0 W/m2
21:16 -1.2 °C -2 °C 1026.3 hPa Calm   -1607.7 km/h 94 % 0 mm 0 W/m2
21:21 -1.2 °C -2 °C 1026.3 hPa Calm   -1607.7 km/h 94 % 0 mm 0 W/m2
21:26 -1.3 °C -2.1 °C 1026.3 hPa Calm   -1607.7 km/h 94 % 0 mm 0 W/m2
21:31 -1.3 °C -2.1 °C 1026.3 hPa Calm   -1607.7 km/h 94 % 0 mm 0 W/m2
21:36 -1.3 °C -2.1 °C 1026.3 hPa Calm   -1607.7 km/h 94 % 0 mm 0 W/m2
21:41 -1.5 °C -2.3 °C 1026 hPa Calm   -1607.7 km/h 94 % 0 mm 0 W/m2
21:46 -1.5 °C -2.3 °C 1026 hPa Calm   -1607.7 km/h 94 % 0 mm 0 W/m2
21:51 -1.5 °C -2.3 °C 1026 hPa Calm   -1607.7 km/h 94 % 0 mm 0 W/m2
21:56 -1.6 °C -2.4 °C 1026.3 hPa Calm   -1607.7 km/h 94 % 0 mm 0 W/m2
22:01 -1.6 °C -2.4 °C 1026.3 hPa Calm   -1607.7 km/h 94 % 0 mm 0 W/m2
22:06 -1.6 °C -2.4 °C 1026.3 hPa Calm   -1607.7 km/h 94 % 0 mm 0 W/m2
22:11 -1.8 °C -2.6 °C 1026.3 hPa East 1.6 km/h -1607.7 km/h 95 % 0 mm 0 W/m2
22:16 -1.8 °C -2.6 °C 1026.3 hPa East 1.6 km/h -1607.7 km/h 95 % 0 mm 0 W/m2
22:21 -1.8 °C -2.6 °C 1026.3 hPa East 1.6 km/h -1607.7 km/h 95 % 0 mm 0 W/m2
22:26 -1.8 °C -2.5 °C 1026.3 hPa Calm   -1607.7 km/h 95 % 0 mm 0 W/m2
22:31 -1.8 °C -2.5 °C 1026.3 hPa Calm   -1607.7 km/h 95 % 0 mm 0 W/m2
22:36 -1.8 °C -2.5 °C 1026.3 hPa Calm   -1607.7 km/h 95 % 0 mm 0 W/m2
22:41 -1.8 °C -2.5 °C 1026.3 hPa Calm   -1607.7 km/h 95 % 0 mm 0 W/m2
22:46 -1.8 °C -2.5 °C 1026.3 hPa Calm   -1607.7 km/h 95 % 0 mm 0 W/m2
22:51 -1.8 °C -2.5 °C 1026.3 hPa Calm   -1607.7 km/h 95 % 0 mm 0 W/m2
22:56 -1.8 °C -2.6 °C 1026.3 hPa Calm   -1607.7 km/h 95 % 0 mm 0 W/m2
23:01 -1.8 °C -2.6 °C 1026.3 hPa Calm   -1607.7 km/h 95 % 0 mm 0 W/m2
23:06 -1.8 °C -2.6 °C 1026.3 hPa Calm   -1607.7 km/h 95 % 0 mm 0 W/m2
23:11 -2.1 °C -2.7 °C 1026 hPa Calm   -1607.7 km/h 95 % 0 mm 0 W/m2
23:16 -2.1 °C -2.7 °C 1026 hPa Calm   -1607.7 km/h 95 % 0 mm 0 W/m2
23:21 -2.1 °C -2.7 °C 1026 hPa Calm   -1607.7 km/h 95 % 0 mm 0 W/m2
23:26 -2.2 °C -2.9 °C 1026 hPa Calm   -1607.7 km/h 95 % 0 mm 0 W/m2
23:31 -2.2 °C -2.9 °C 1026 hPa Calm   -1607.7 km/h 95 % 0 mm 0 W/m2
23:36 -2.2 °C -2.9 °C 1026 hPa Calm   -1607.7 km/h 95 % 0 mm 0 W/m2
23:41 -2.2 °C -2.9 °C 1025.6 hPa Calm   -1607.7 km/h 95 % 0 mm 0 W/m2
23:46 -2.2 °C -2.9 °C 1025.6 hPa Calm   -1607.7 km/h 95 % 0 mm 0 W/m2
23:51 -2.2 °C -2.9 °C 1025.6 hPa Calm   -1607.7 km/h 95 % 0 mm 0 W/m2
23:56 -2.3 °C -2.9 °C 1025.6 hPa Calm   -1607.7 km/h 95 % 0 mm 0 W/m2
Delerius-Weather
Compliments of Weather Underground - 3.25 mb

Data updates at regular intervals.